Terug naar catalogus

NOAA 16 DEB

ActiefPO
NORAD 41130·DEBRIS·🇺🇸 United States

Gelanceerd Sep 21, 2000 vanaf Vandenberg Space Force Base

Loading…

Volgende Passages (komende 24 uur)

TLE

VersSource: Space-Track

Epoch: Sep 14, 2026, 07:05 UTC

1 41130U 00055BM  26257.29569413  .00003059  00000-0  95402-3 0  9990
2 41130  98.9513  59.5766 0017362 243.2028 116.7384 14.41543316559656

Volg NOAA 16 DEB in realtime met AllMySat

Download on the App Store